#timestamp,LO_Frequency,Hit,StdDev 
1610539215.9,286047000.7,N
1610539235.7,286047000.6,N
1610539255.5,286047001.0,N
1610539305.4,286047000.7,E
1610539315.3,286046998.6,N
1610539335.2,286046999.6,P
1610539355.0,286046999.3,N
1610539355.9,286046999.3,N
1610539375.7,286047001.2,Y
1610539395.6,286047001.5,P
1610539415.4,286047002.5,N
1610539435.3,286047002.6,N
1610539455.1,286047001.5,N
1610539456.0,286047001.5,N
1610539475.8,286047001.9,N
1610539495.7,286047004.4,Y
1610539515.5,286046999.9,P
1610539535.3,286046998.6,N
1610539555.2,286047000.8,N
1610539575.0,286047001.1,N
1610539575.9,286047001.1,N
1610539595.8,286046996.9,Y
1610539615.6,286046997.5,P
1610539635.4,286046996.2,N
1610539655.3,286046993.5,P
1610539675.1,286046994.0,N
1610539695.9,286046994.1,N
1610539715.7,286046993.5,N
1610539735.5,286046996.2,N
1610539755.4,286046995.4,N
1610539775.2,286046997.7,N
1610539795.0,286046998.4,N
1610539796.0,286046998.4,N
1610539815.8,286046995.4,N
1610539835.6,286046995.8,N
1610539855.5,286046993.8,Y
1610539875.3,286046999.9,P
1610539895.1,286047000.9,N
1610539915.9,286047002.3,N
1610539935.7,286047002.6,N
1610539955.6,286046999.9,N
1610539975.4,286047000.0,N
1610539995.2,286047001.2,N
1610540015.1,286047000.1,N
1610540016.0,286047000.1,N
1610540035.8,286047001.4,N
1610540055.6,286047001.4,N
1610540075.5,286047004.1,N
1610540095.3,286047004.0,N
1610540115.2,286047001.4,N
1610540135.9,286047001.5,N
1610540155.7,286047001.8,N
1610540175.6,286047001.7,N
1610540195.4,286047001.4,N
1610540215.3,286047001.3,N
1610540235.1,286047004.4,N
1610540236.0,286047004.4,N
1610540255.8,286047003.2,N
1610540275.7,286047004.1,N
1610540295.5,286047001.6,N
1610540315.4,286047000.0,N
1610540335.2,286047000.3,N
1610540355.0,286047004.4,N
1610540355.9,286047004.4,N
1610540375.8,286047001.3,N
1610540395.6,286047003.9,N
1610540415.4,286047001.9,N
1610540435.3,286047004.4,N
1610540455.1,286047001.9,N
1610540475.9,286047002.8,N
1610540495.7,286047002.8,N
1610540515.5,286047001.9,N
1610540535.4,286047001.6,N
1610540555.2,286047002.0,N
1610540575.1,286047000.6,N
1610540576.0,286047000.6,N
1610540595.8,286047002.4,N
1610540615.6,286047002.5,N
1610540635.5,286047002.3,N
1610540655.3,286046999.7,N
1610540675.2,286047000.4,N
1610540695.9,286047001.8,N
1610540715.7,286047001.8,N
1610540735.6,286046999.7,N
1610540755.4,286047002.6,N
1610540775.2,286047001.9,N
1610540795.1,286047001.8,N
1610540796.0,286047001.8,N
1610540815.8,286047002.1,N
1610540835.7,286047003.7,N
1610540855.5,286047003.5,N
1610540875.3,286047003.2,N
1610540895.2,286047003.9,Y
1610540915.0,286047002.2,P
1610540915.9,286047002.2,P
1610540935.7,286047002.3,P
1610540955.6,286047000.7,Y
1610540975.4,286046996.6,P
1610540995.3,286046999.1,N
1610541015.1,286046999.2,N
1610541035.8,286046997.8,N
1610541055.7,286046996.7,N
1610541075.5,286046995.3,N
1610541095.4,286046998.0,N
1610541115.2,286046995.2,N
1610541135.0,286046996.1,N
1610541135.9,286046996.1,N
1610541155.8,286046995.7,N
1610541175.6,286046995.3,N
1610541195.4,286046998.0,N
1610541215.3,286046997.4,N
1610541235.1,286046994.9,N
1610541255.9,286046996.4,N
1610541275.7,286046997.8,N
1610541295.5,286046995.5,N
1610541315.4,286046995.2,N
1610541335.2,286046996.1,N
1610541355.0,286046996.1,N
1610541355.9,286046996.1,N
1610541375.8,286046995.7,N
1610541395.6,286046994.1,Y
1610541415.5,286046997.3,P
1610541435.3,286046998.9,P
1610541455.1,286047000.7,N
1610541475.9,286046997.4,N
1610541495.7,286046995.0,Y
1610541515.5,286046997.4,P
1610541535.4,286046998.0,P
1610541555.2,286046997.3,P
1610541575.1,286046996.7,Y
1610541576.0,286046996.7,P
1610541595.8,286046998.5,N
1610541615.6,286046998.2,N
1610541635.5,286047000.2,N
1610541655.3,286046999.7,N
1610541675.1,286047002.4,N
1610541695.9,286047000.8,N
1610541715.7,286046999.3,N
1610541735.6,286046996.6,N
1610541755.4,286046998.1,N
1610541775.2,286047000.4,N
1610541795.1,286047000.1,N
1610541796.0,286047000.1,N
1610541815.8,286047000.2,N
1610541835.6,286047002.5,N
1610541855.5,286047001.4,N
1610541875.3,286047004.3,N
1610541895.2,286047004.0,N
1610541915.9,286047002.7,N
1610541935.7,286047000.6,N
1610541955.6,286047001.0,N
1610541975.4,286047000.8,N
1610541995.2,286047000.4,N
1610542015.1,286047000.0,N
1610542016.0,286047000.0,N
1610542035.8,286047000.4,N
1610542055.7,286046998.6,N
1610542075.5,286046998.4,N
1610542095.3,286046997.3,N
1610542115.2,286046996.9,N
1610542135.0,286046999.5,N
1610542135.9,286046999.5,N
1610542155.7,286046998.6,N
1610542175.6,286046998.1,N
1610542195.4,286046999.3,N
1610542215.3,286046998.7,N
1610542235.1,286046999.0,N
1610542236.0,286046999.0,N
1610542255.8,286046998.6,N
1610542275.7,286046998.7,N
1610542295.5,286046999.3,N
1610542315.3,286046998.7,N
1610542335.2,286046998.4,N
1610542355.0,286046996.9,N
1610542355.9,286046996.9,N
1610542375.8,286046998.3,N
1610542395.6,286046996.9,N
1610542415.4,286046997.8,N
1610542435.3,286046997.5,N
1610542455.1,286046999.2,N
1610542475.9,286046997.7,N
1610542495.7,286046997.4,N
1610542515.5,286046997.2,N
1610542535.4,286046999.4,N
1610542555.2,286046994.9,Y
1610542575.0,286046999.2,P
1610542575.9,286046999.2,N
1610542595.8,286046999.4,N
1610542615.6,286046996.6,Y
1610542635.5,286046997.0,P
1610542655.3,286046998.6,N
1610542675.1,286047001.2,N
1610542695.9,286047000.5,N
1610542715.7,286047000.7,N
1610542735.8,286046998.2,N
1610542755.7,286046999.1,N
1610542775.5,286046998.7,N
1610542795.4,286047001.0,N
